www.pogodaiklimat.ru

Погода и климат >> Архив погоды >> Китай >> Внутренняя Монголия >> Мандал


ПОГОДА в Мандале

  • Прогноз погоды в Мандале
  • Монитор погоды в Мандале

АРХИВ ПОГОДЫ в Мандале

Время (UTC), дата Ветер
(напр.,м/с)
 
Видим.   Явления Облачность Т
(С)
Тd
(С)
f
(%)
Тe
(С)
Тes
(С)
Комфортность P
(гПа)
Po
(гПа)
Тmin
(С)
Tmax
(С)
R
(мм)
R24
(мм)
S
(см)
18 14.07 ЮВ 1 30 км ?/? +21.5 +8.4 43 +23 +23 комфорт 999.5 869.8 +30.3
21 14.07 З 2 30 км н/о +20.0 +9.0 49 +22 +22 комфорт 1000.1 867.2
00 15.07 З 3 30 км 9/9 600 м
[]
+23.5 +11.5 47 +25 +25 комфорт 1000.7 870.8
03 15.07 С 1 30 км 9/9 600 м
[]
+27.3 +10.5 35 +28 +30 жарко 1000.6 870.7
06 15.07 Ю 4 30 км {дождь} 9/9 600 м
[]
+26.8 +10.5 36 +28 +29 жарко 1001.3 870.9 +19.9 0.0
09 15.07 Ю 5 30 км {дождь} 9/9 600 м
[]
+24.3 +13.2 50 +26 +27 жарко 1001.7 870.4
12 15.07 Ю 2 30 км {дождь} 9/9 600 м
[]
+23.3 +14.6 58 +27 +27 душно 1001.4 870.7 0.1
15 15.07 ЮЗ 5 30 км н/о +22.0 +11.4 51 +24 +24 комфорт 1002.4 870.0
18 15.07 ЮЗ 7 26 км слаб. дождь ?/? +17.6 +14.3 81 +17 +17 1003.6 872.1 +28.4
21 15.07 ЮЗ 2 14 км слаб. дождь ?/? +16.6 +14.6 88 +17 +17 1004.8 869.8
00 16.07 Ю 4 15 км 10/10 1000 м
[]
+17.0 +15.2 89 +17 +17 1004.9 872.4 0.7
03 16.07 Ю 2 12 км 10/10 1000 м
[]
+18.1 +15.5 85 +19 +19 1004.5 870.2
06 16.07 ЮЗ 2 30 км 10/10 1000 м
[]
+21.2 +15.1 68 +24 +24 комфорт 1003.5 870.9 +16.6
09 16.07 Ю 3 30 км 10/10 1000 м
[]
+22.5 +14.9 62 +26 +26 жарко 1001.9 869.8
12 16.07 В 3 30 км {дождь} 9/9 1000 м
[]
+20.9 +15.7 72 +25 +25 комфорт 1002.3 869.6
15 16.07 В 4 7000 м н/о +18.3 +15.9 86 +19 +19 1003.4 869.3
18 16.07 СВ 3 200 м туман ?/? +16.7 +15.6 93 +16 +16 1003.9 871.0 +22.5
21 16.07 В 3 100 м туман ?/? +16.3 +15.5 95 +16 +16 1004.1 869.1
00 17.07 В 2 1100 м в посл. час туман 9/9 1000 м
[]
+16.8 +16.0 95 +17 +17 1006.1 872.9
03 17.07 ЮВ 2 19 км ясно +22.8 +15.1 62 +27 +43 душно 1005.9 873.4
06 17.07 В 2 30 км 3/3 600 м
[]
+25.6 +13.5 47 +28 +40 жарко 1005.1 873.0 +16.2
09 17.07 В 4 30 км 9/9 600 м
[]
+26.7 +12.7 42 +28 +29 жарко 1004.4 873.7
12 17.07 В 4 30 км 9/9 600 м
[]
+24.7 +13.9 51 +27 +27 жарко 1004.5 872.3
15 17.07 СВ 1 30 км ?/? +22.6 +14.4 60 +26 +26 жарко 1005.1 872.6
18 17.07 ЮВ 1 30 км ?/? +20.9 +14.1 65 +25 +25 комфорт 1004.6 873.4 +27.1
21 17.07 СВ 1 15 км н/о +19.5 +14.3 72 +22 +22 комфорт 1004.2 870.6
00 18.07 Ю 1 23 км 4/4
[]
+23.7 +16.0 62 +27 +30 жарко 1003.8 873.1
03 18.07 ЮВ 2 12 км 9/9 1000 м
[]
+27.7 +16.0 49 +31 +33 душно 1003.2 873.1
06 18.07 Ю 2 16 км 9/9 600 м
[]
+29.4 +12.4 35 +30 +32 жарко 1001.9 871.8 +19.0
09 18.07 Ю 3 23 км 9/9 600 м
[]
+29.9 +14.1 38 +32 +32 жарко 1000.5 871.6
12 18.07 Ю 2 н/о 9/9 600 м
[]
+27.7 +13.3 41 +29 +29 жарко 999.9 870.3
15 18.07 З 2 22 км н/о +25.0 +14.2 51 +27 +27 жарко 1000.2 869.4
18 18.07 З 1 13 км ?/? +23.2 +15.8 63 +28 +28 душно 999.8 870.5 +30.1
21 18.07 З 2 7000 м н/о +22.3 +15.9 67 +26 +26 жарко 999.1 867.3
00 19.07 СЗ 8 30 км 10/10 1000 м
[]
+20.8 +14.0 65 +23 +23 комфорт 1000.7 870.4
03 19.07 ЮЗ 2 20 км слаб. дождь 10/10 600 м
[]
+19.8 +16.6 82 +23 +23 комфорт 1002.0 868.8
06 19.07 Ю 3 30 км {дождь} 5/5 600 м
[]
+22.6 +15.7 65 +27 +34 душно 1000.6 869.8 +19.0 0.5
09 19.07 ЮЗ 4 30 км 3/3 600 м
[]
+25.9 +14.1 48 +28 +31 жарко 997.9 867.7
12 19.07 З 4
{18}
30 км слаб. дождь 8/8 600 м
[]
+21.9 +16.8 73 +26 +26 душно 999.6 868.3 2
15 19.07 З 3 30 км н/о +21.0 +16.8 77 +25 +25 комфорт 1001.2 868.6
18 19.07 З 5 28 км ?/? +19.9 +16.3 80 +22 +22 комфорт 1001.2 869.6 +26.7
21 19.07 З 1 21 км н/о +17.6 +15.2 86 +19 +19 1001.6 867.5
00 20.07 З 5 30 км ясно +22.7 +16.3 67 +27 +30 душно 1001.9 870.7
03 20.07 З 3 30 км ясно +29.1 +12.1 35 +30 +44 жарко 1000.7 871.5
06 20.07 ЮЗ 3 30 км ясно +31.8 +6.8 21 +30 +45 жарко 999.0 869.6 +17.2
09 20.07 СЗ 2 30 км 3/3 600 м
[]
+33.2 +4.0 16 +31 +35 жарко 998.2 870.9
12 20.07 СЗ 1 18 км 5/5 600 м
[]
+29.9 +7.8 25 +29 +29 жарко 998.5 869.3
15 20.07 З 6 30 км н/о +28.6 +3.5 20 +27 +27 жарко 997.8 868.7
18 20.07 З 3 30 км ?/? +22.7 +8.4 40 +24 +24 комфорт 999.1 870.2 +33.8
21 20.07 З 3 30 км н/о +21.1 +10.6 51 +23 +23 комфорт 999.0 866.7
00 21.07 З 3 30 км 9/9 1000 м
[]
+25.9 +12.0 42 +27 +28 жарко 999.6 870.9
03 21.07 З 6 30 км 4/4 600 м
[]
+33.1 +7.9 21 +32 +35 жарко 997.6 870.3
06 21.07 Ю 6 30 км 5/5 600 м
[]
+35.1 +5.5 16 +33 +36 жарко 997.3 869.3 +20.9
09 21.07 В 4 30 км в посл. час дождь 9/9 600 м
[]
+26.3 +14.1 47 +29 +29 жарко 1000.5 870.2
12 21.07 С 4 30 км {дождь} 10/10 600 м
[]
+25.3 +9.6 37 +26 +26 жарко 1001.5 871.7 5

 

Местоположение метеостанции Мандал (Внутренняя Монголия, Китай): широта 42.53 долгота 110.13 высота над уровнем моря 1223 м.

В архиве по умолчанию представлена погода в Мандале за последнюю неделю. Архивные данные за месяц целиком и за предыдущие месяцы, начиная с января 2011 года, Вы можете получить, выбрав интересующий диапазон дат из раскрывающегося списка и нажав кнопку "Ввод!".


*Определитесь, кто Вы:
робот инопланетянин человек

Внимание! Время в таблицах - всемирное. Для получения местного времени необходимо прибавить поправку, которая равна 8 ч.

Смотрите также архив погоды в соседних городах и на ближайших метеорологических станциях:

Погода в Дархан-Мумингане (Внутренняя Монголия, Китай) (96 км)
Погода в Хатанбулаге (Монголия) (104 км)
Погода в Хэй Лю Чжэнь (Внутренняя Монголия, Китай) (171 км)
Погода в Замун-Ууде (Монголия) (196 км)
Погода в Эрэн-Хото (Внутренняя Монголия, Китай) (196 км)
Погода в Чжурихе Чжень (Внутренняя Монголия, Китай) (228 км)
Погода в Хух-Хото (Внутренняя Монголия, Китай) (230 км)
Погода в Ханбогде (Монголия) (253 км)
Погода в Сайншанде (Монголия) (264 км)
Погода в Цзинине (Шаньдун, Китай) (295 км)

Пояснения к столбцам:

Ветер - указаны скорость ветра в м/с - средняя за 10 мин, порывы в срок и между сроками (в фигурных скобках) и направление, откуда дует ветер: С - северный, СВ - северо-восточный, В - восточный, ЮВ - юго-восточный, Ю - южный, ЮЗ - юго-западный, З - западный, СЗ - северо-западный.
Видимость - горизонтальная дальность видимости в метрах или километрах. При видимости от 1 до 10 км при отсутствии осадков обычно наблюдается дымка, при ухудшении видимости до 1 км и менее - туман. В сухую погоду видимость может ухудшаться дымом, пылью или мглою.
Явления - указаны атмосферные явления, наблюдавшиеся в срок или в последний час перед сроком; фигурными скобками обозначены явления, наблюдавшиеся между сроками (за 1-3 часа до срока); квадратными скобками обозначены град или гололедные отложения с указанием их диаметра в мм.
Облачность - указаны через наклонную черту общая и нижняя облачность в баллах и высота нижней границы облаков в метрах; квадратными скобками обозначены формы облаков: Ci - перистые, Cs - перисто-слоистые, Cc - перисто-кучевые, Ac - высококучевые, As - высокослоистые, Sc - слоисто-кучевые, Ns - слоисто-дождевые, Cu - кучевые, Cb - кучево-дождевые. Подробнее классификацию облаков см. в Атласе облаков (PDF).
T - Температура воздуха - температура, измеренная на высоте 2 м над землей.
Td - Температура точки росы - температура, при понижении до которой содержащийся в воздухе водяной пар достигнет насыщения.
f - Относительная влажность воздуха - влажноcть воздуха, измеренная на высоте 2 м над землей.
Te - Эффективная температура - температура, которую ощущает одетый по сезону человек в тени. Характеристика душности погоды. При расчете учитывается влияние влажности воздуха и скорости ветра на теплоощущения человека.
Tes - Эффективная температура на солнце - температура, которую ощущает человек, с поправкой на солнечный нагрев. Характеристика знойности погоды. Зависит от высоты солнца над горизонтом, облачности и скорости ветра. Ночью, в пасмурную погоду, а также при ветре 12 м/с и более поправка равна нулю.
P - Атмосферное давление - приведенное к уровню моря атмосферное давление.
Po - Атмосферное давление - измеренное на уровне метеостанции атмосферное давление.
Tmin - Минимальная температура - минимум температуры воздуха на высоте 2 м над землей.
Tmax - Максимальная температура - максимум температуры воздуха на высоте 2 м над землей.
R - Количество осадков - Количество выпавших осадков за период времени, мм. При наведении курсора мыши на число - период времени, за который выпало указанное количество осадков.
R24 - Количество осадков - Количество выпавших осадков за 24 часа, мм.
S - Снежный покров - Высота снежного покрова, см. При наведении курсора мыши на число - состояние снежного покрова и степень покрытия местности в баллах.